Вернуться в каталог

STARLINK-2224

АктивенСвязьVLEO
NORAD 48573·PAYLOAD·🇺🇸 United States

Запущен May 15, 2021 с Cape Canaveral Space Force Station

Loading…

Ближайшие Пролёты (ближайшие 24 часа)

TLE

СвежийSource: CelesTrak SupGP

Эпоха: Sep 14, 2026, 19:38 UTC

1 48573C 21041W   26257.81854167 -.00031155  00000+0 -10016-2 0  2570
2 48573  53.1578 327.2101 0001281  88.7501 236.5602 15.31726469    14

Отслеживайте STARLINK-2224 в реальном времени с AllMySat

Download on the App Store